Caldwell, NJ

5:45 PM EDT on October 01, 2016 (GMT -0400)
Essex County

Weather History for KCDW - May, 2013

Change the Weather History Date:

Friday, May 17, 2013

  Actual Average Record
Temperature  
Mean Temperature 64 °F -  
Max Temperature 73 °F 70 °F 90 °F (1951)
Min Temperature 55 °F 47 °F 33 °F (1956)
Degree Days  
Heating Degree Days 1    
Growing Degree Days 14 (Base 50)    
Moisture  
Dew Point 39 °F    
Average Humidity 42    
Maximum Humidity 67    
Minimum Humidity 27    
Precipitation  
Precipitation 0.00 in - - ()
Sea Level Pressure  
Sea Level Pressure 30.08 in    
Wind  
Wind Speed 6 mph (NW)    
Max Wind Speed 9 mph    
Max Gust Speed 22 mph    
Visibility 10 miles    
Events      
Averages and records for this station are not official NWS values.
T = Trace of Precipitation, MM = Missing Value Source: NWS Daily Summary

Daily Weather History Graph

Daily Weather History Graph

Search for Another Location

Airport or City:

Trip Planner

Search our weather history database for the weather conditions in past years. The results will help you decide how hot, cold, wet, or windy it might be!

Date:

Astronomy

May. 17, 2013 Rise Set
Actual Time 5:37 AM EDT 8:10 PM EDT
Civil Twilight 5:06 AM EDT 8:41 PM EDT
Nautical Twilight 4:27 AM EDT 9:20 PM EDT
Astronomical Twilight 3:43 AM EDT 10:04 PM EDT
Moon 12:08 PM EDT (5/17) 1:00 AM EDT (5/17)
Length of Visible Light 15h 35m
Length of Day
14h 32m
Waxing Crescent, 45% of the Moon is Illuminated
May 17
Waxing Crescent
May 18
First Quarter
May 25
Full
May 31
Last Quarter
Jun 8
New

Hourly Weather History & Observations

Time (EDT) Temp. Dew Point Humidity Pressure Visibility Wind Dir Wind Speed Gust Speed Precip Events Conditions
12:53 AM 69.1 °F 37.9 °F 32% 29.88 in 10.0 mi NW 8.1 mph - N/A   Clear
1:53 AM 66.0 °F 36.0 °F 33% 29.90 in 10.0 mi NNW 8.1 mph 21.9 mph N/A   Clear
2:53 AM 63.0 °F 36.0 °F 37% 29.93 in 10.0 mi NW 9.2 mph - N/A   Clear
3:53 AM 61.0 °F 37.0 °F 41% 29.95 in 10.0 mi NNW 5.8 mph - N/A   Clear
4:53 AM 59.0 °F 39.0 °F 48% 29.97 in 10.0 mi NNW 8.1 mph - N/A   Clear
5:53 AM 55.9 °F 39.9 °F 55% 30.01 in 10.0 mi Calm Calm - N/A   Clear
6:53 AM 57.0 °F 41.0 °F 55% 30.04 in 10.0 mi Calm Calm - N/A   Clear
8:53 AM 60.1 °F 41.0 °F 49% 30.09 in 10.0 mi Variable 4.6 mph - N/A   Clear
9:53 AM 60.1 °F 37.9 °F 44% 30.09 in 10.0 mi NW 9.2 mph - N/A   Clear
10:53 AM 62.1 °F 37.9 °F 41% 30.11 in 10.0 mi WNW 8.1 mph - N/A   Clear
11:53 AM 63.0 °F 39.0 °F 41% 30.12 in 10.0 mi NW 8.1 mph - N/A   Clear
12:53 PM 64.0 °F 37.9 °F 38% 30.12 in 10.0 mi NNW 9.2 mph - N/A   Clear
1:53 PM 66.9 °F 39.9 °F 37% 30.11 in 10.0 mi Variable 3.5 mph - N/A   Clear
3:53 PM 72.0 °F 37.0 °F 28% 30.09 in 10.0 mi West 9.2 mph - N/A   Clear
4:53 PM 73.0 °F 37.0 °F 27% 30.10 in 10.0 mi WNW 8.1 mph - N/A   Clear
5:53 PM 73.9 °F 39.0 °F 28% 30.10 in 10.0 mi NNW 6.9 mph - N/A   Clear
6:53 PM 72.0 °F 37.9 °F 29% 30.11 in 10.0 mi WNW 8.1 mph - N/A   Clear
7:53 PM 68.0 °F 42.1 °F 39% 30.14 in 10.0 mi East 4.6 mph - N/A   Clear
8:53 PM 64.9 °F 43.0 °F 45% 30.17 in 10.0 mi NE 3.5 mph - N/A   Clear
9:53 PM 62.1 °F 43.0 °F 50% 30.21 in 10.0 mi Calm Calm - N/A   Clear
10:53 PM 59.0 °F 44.1 °F 58% 30.22 in 10.0 mi Calm Calm - N/A   Clear
11:53 PM 55.9 °F 45.0 °F 67% 30.23 in 10.0 mi Calm Calm - N/A   Clear